DLH176 EDVE-EDDH

Flight info

Callsign DLH176
Flight time 0h 27m
Altitude 22000
Route HLZ8T HLZ DCT OBATU DCT NOLGO NOLGO3P
Aircraft B737/M-V/N

Departure

Time 2026-04-23 20:43
Airport Braunschweig-Wolfsburg Airport (EDVE)

Arrival

Time 2026-04-23 21:10
Airport Hamburg Helmut Schmidt Airport (EDDH)
Time Latitude Longitude Altitude Speed Heading
2026-04-23 20:31 52.31716 10.56370 287 ft 0 kts 41°
2026-04-23 20:38 52.31717 10.56371 287 ft 0 kts 35°
2026-04-23 20:39 52.31750 10.56385 287 ft 9 kts 14°
2026-04-23 20:39 52.31811 10.56507 290 ft 19 kts 79°
2026-04-23 20:39 52.31827 10.56800 293 ft 32 kts 86°
2026-04-23 20:39 52.31851 10.57217 298 ft 36 kts 84°
2026-04-23 20:40 52.31878 10.57425 304 ft 7 kts 52°
2026-04-23 20:40 52.31902 10.57475 305 ft 4 kts 49°
2026-04-23 20:40 52.31916 10.57496 305 ft 1 kts 40°
2026-04-23 20:40 52.31916 10.57497 305 ft 0 kts 40°
2026-04-23 20:41 52.31933 10.57518 306 ft 10 kts 36°
2026-04-23 20:41 52.31992 10.57540 307 ft 2 kts 332°
2026-04-23 20:42 52.32015 10.57337 304 ft 37 kts 266°
2026-04-23 20:42 52.31964 10.56471 290 ft 113 kts 264°
2026-04-23 20:42 52.31864 10.54847 313 ft 169 kts 265°
2026-04-23 20:42 52.31783 10.52914 838 ft 170 kts 265°
2026-04-23 20:43 52.31666 10.50908 1324 ft 186 kts 265°
2026-04-23 20:43 52.31537 10.48753 1947 ft 198 kts 265°
2026-04-23 20:43 52.31502 10.46445 2543 ft 211 kts 283°
2026-04-23 20:43 52.32260 10.44348 3151 ft 223 kts 320°
2026-04-23 20:44 52.33629 10.43274 3646 ft 223 kts 351°
2026-04-23 20:44 52.35172 10.43534 3670 ft 227 kts 26°
2026-04-23 20:44 52.36570 10.44684 3714 ft 226 kts 19°
2026-04-23 20:44 52.38067 10.45419 3715 ft 225 kts 15°
2026-04-23 20:45 52.39423 10.46641 3735 ft 224 kts 50°
2026-04-23 20:45 52.40126 10.48931 3771 ft 243 kts 82°
2026-04-23 20:45 52.40031 10.51896 3818 ft 274 kts 101°
2026-04-23 20:45 52.39674 10.54957 3739 ft 270 kts 102°
2026-04-23 20:46 52.39279 10.57992 3941 ft 284 kts 103°
2026-04-23 20:46 52.38865 10.61071 5298 ft 280 kts 103°
2026-04-23 20:46 52.38457 10.64072 6832 ft 270 kts 102°
2026-04-23 20:46 52.38396 10.67095 7749 ft 280 kts 77°
2026-04-23 20:47 52.39241 10.69990 8701 ft 287 kts 49°
2026-04-23 20:47 52.40780 10.71910 9854 ft 286 kts 23°
2026-04-23 20:47 52.42742 10.72611 10657 ft 298 kts
2026-04-23 20:47 52.44874 10.71973 10748 ft 335 kts 338°
2026-04-23 20:48 52.47019 10.70243 10751 ft 346 kts 339°
2026-04-23 20:48 52.49316 10.68807 11350 ft 358 kts 348°
2026-04-23 20:48 52.51727 10.68175 12582 ft 339 kts 351°
2026-04-23 20:48 52.54033 10.67619 12706 ft 346 kts 352°
2026-04-23 20:49 52.56486 10.67045 12724 ft 367 kts 352°
2026-04-23 20:49 52.59007 10.66456 12713 ft 363 kts 352°
2026-04-23 20:49 52.61499 10.65873 12714 ft 359 kts 352°
2026-04-23 20:49 52.63967 10.65295 12716 ft 358 kts 352°
2026-04-23 20:50 52.66445 10.64715 12716 ft 359 kts 352°
2026-04-23 20:50 52.68907 10.64137 12716 ft 359 kts 352°
2026-04-23 20:50 52.71389 10.63554 12654 ft 361 kts 352°
2026-04-23 20:50 52.73870 10.62971 12364 ft 359 kts 352°
2026-04-23 20:51 52.76342 10.62389 12067 ft 356 kts 352°
2026-04-23 20:51 52.78787 10.61813 11721 ft 354 kts 352°
2026-04-23 20:51 52.81223 10.61238 11378 ft 352 kts 352°
2026-04-23 20:51 52.83649 10.60665 11036 ft 350 kts 352°
2026-04-23 20:52 52.86053 10.60097 10740 ft 347 kts 352°
2026-04-23 20:52 52.88436 10.59510 10713 ft 346 kts 347°
2026-04-23 20:52 52.90676 10.57994 10739 ft 348 kts 334°
2026-04-23 20:52 52.92846 10.56249 10716 ft 349 kts 334°
2026-04-23 20:53 52.95020 10.54487 10716 ft 349 kts 334°
2026-04-23 20:53 52.97224 10.52697 10716 ft 349 kts 334°
2026-04-23 20:53 52.99393 10.50934 10716 ft 349 kts 334°
2026-04-23 20:53 53.01582 10.49155 10716 ft 349 kts 334°
2026-04-23 20:54 53.03753 10.47388 10716 ft 349 kts 334°
2026-04-23 20:54 53.05926 10.45618 10716 ft 349 kts 334°
2026-04-23 20:54 53.08105 10.43843 10716 ft 349 kts 334°
2026-04-23 20:54 53.10283 10.42067 10716 ft 349 kts 334°
2026-04-23 20:55 53.12485 10.40271 10716 ft 349 kts 334°
2026-04-23 20:55 53.14640 10.38511 10716 ft 349 kts 334°
2026-04-23 20:55 53.16819 10.36731 10716 ft 349 kts 334°
2026-04-23 20:55 53.18995 10.34953 10716 ft 349 kts 333°
2026-04-23 20:56 53.21174 10.33170 10716 ft 349 kts 333°
2026-04-23 20:56 53.23373 10.31370 10573 ft 352 kts 333°
2026-04-23 20:56 53.25550 10.29587 10087 ft 349 kts 333°
2026-04-23 20:56 53.27705 10.27821 9602 ft 344 kts 333°
2026-04-23 20:57 53.29858 10.26055 9116 ft 341 kts 333°
2026-04-23 20:57 53.31959 10.24330 8642 ft 338 kts 333°
2026-04-23 20:57 53.34053 10.22610 8167 ft 336 kts 334°
2026-04-23 20:57 53.36151 10.20886 7687 ft 334 kts 334°
2026-04-23 20:58 53.38246 10.19163 6927 ft 339 kts 334°
2026-04-23 20:58 53.40364 10.17421 6053 ft 345 kts 334°
2026-04-23 20:58 53.42539 10.15629 5164 ft 350 kts 334°
2026-04-23 20:58 53.44697 10.13851 4773 ft 337 kts 334°
2026-04-23 20:59 53.46743 10.12164 4740 ft 317 kts 334°
2026-04-23 20:59 53.48650 10.10591 4660 ft 294 kts 334°
2026-04-23 20:59 53.50400 10.09146 4692 ft 263 kts 334°
2026-04-23 20:59 53.51967 10.07867 4702 ft 238 kts 340°
2026-04-23 21:00 53.53574 10.07619 4777 ft 235 kts 17°
2026-04-23 21:00 53.54954 10.09038 4815 ft 240 kts 47°
2026-04-23 21:00 53.56087 10.11154 4754 ft 240 kts 49°
2026-04-23 21:00 53.57172 10.13236 4796 ft 239 kts 49°
2026-04-23 21:01 53.58264 10.15335 4788 ft 238 kts 49°
2026-04-23 21:01 53.59362 10.17449 4788 ft 238 kts 49°
2026-04-23 21:01 53.60441 10.19526 4802 ft 238 kts 49°
2026-04-23 21:01 53.61530 10.21629 4786 ft 238 kts 49°
2026-04-23 21:02 53.62621 10.23732 4789 ft 238 kts 49°
2026-04-23 21:02 53.63708 10.25827 4774 ft 238 kts 49°
2026-04-23 21:02 53.64819 10.27969 4493 ft 240 kts 49°
2026-04-23 21:02 53.65910 10.30076 4206 ft 239 kts 49°
2026-04-23 21:03 53.66999 10.32177 3919 ft 238 kts 49°
2026-04-23 21:03 53.68084 10.34273 3630 ft 237 kts 49°
2026-04-23 21:03 53.69166 10.36364 3342 ft 236 kts 49°
2026-04-23 21:03 53.70235 10.38431 3056 ft 235 kts 49°
2026-04-23 21:04 53.71370 10.40415 2776 ft 232 kts 28°
2026-04-23 21:04 53.72881 10.40865 2800 ft 227 kts 345°
2026-04-23 21:04 53.74233 10.39469 2804 ft 234 kts 305°
2026-04-23 21:04 53.74739 10.36915 2801 ft 233 kts 267°
2026-04-23 21:05 53.74621 10.34206 2770 ft 231 kts 264°
2026-04-23 21:05 53.74474 10.31565 2739 ft 218 kts 264°
2026-04-23 21:05 53.74336 10.29117 2726 ft 204 kts 264°
2026-04-23 21:05 53.74206 10.26809 2715 ft 189 kts 264°
2026-04-23 21:06 53.74086 10.24688 2774 ft 178 kts 264°
2026-04-23 21:06 53.73965 10.22542 2799 ft 188 kts 264°
2026-04-23 21:06 53.73840 10.20334 2753 ft 187 kts 264°
2026-04-23 21:06 53.73718 10.18166 2750 ft 186 kts 265°
2026-04-23 21:07 53.73503 10.16022 2732 ft 187 kts 240°
2026-04-23 21:07 53.72546 10.14563 2608 ft 190 kts 205°
2026-04-23 21:07 53.71349 10.13631 2150 ft 198 kts 204°
2026-04-23 21:07 53.70083 10.12664 1773 ft 195 kts 204°
2026-04-23 21:08 53.68906 10.11766 1724 ft 178 kts 204°
2026-04-23 21:08 53.67959 10.10436 1780 ft 180 kts 233°
2026-04-23 21:08 53.67265 10.08654 1740 ft 186 kts 251°
2026-04-23 21:08 53.66780 10.06626 1754 ft 185 kts 261°
2026-04-23 21:09 53.66415 10.04595 1746 ft 185 kts 236°
2026-04-23 21:09 53.65567 10.02951 1455 ft 187 kts 220°
2026-04-23 21:09 53.64542 10.01548 780 ft 196 kts 218°
2026-04-23 21:09 53.63578 9.99943 281 ft 193 kts 230°
2026-04-23 21:10 53.62746 9.98241 36 ft 178 kts 230°
2026-04-23 21:10 53.62187 9.97116 29 ft 49 kts 230°
2026-04-23 21:10 53.62155 9.97051 30 ft 0 kts 230°
2026-04-23 21:11 53.62141 9.97022 31 ft 18 kts 230°
2026-04-23 21:11 53.61965 9.96666 34 ft 58 kts 230°
2026-04-23 21:11 53.61848 9.96460 35 ft 2 kts 208°
2026-04-23 21:12 53.61766 9.96421 35 ft 0 kts 187°
2026-04-23 21:13 53.61676 9.96507 31 ft 0 kts 90°
2026-04-23 21:13 53.61678 9.96536 31 ft 10 kts 78°
2026-04-23 21:13 53.61768 9.96763 31 ft 36 kts 49°
2026-04-23 21:13 53.61990 9.97207 31 ft 62 kts 51°
2026-04-23 21:14 53.62286 9.97803 32 ft 66 kts 49°
2026-04-23 21:14 53.62630 9.98429 36 ft 81 kts 49°
2026-04-23 21:14 53.62997 9.99185 34 ft 80 kts 51°
2026-04-23 21:14 53.63217 9.99667 31 ft 0 kts 53°
2026-04-23 21:15 53.63220 9.99675 31 ft 6 kts 53°
2026-04-23 21:15 53.63308 9.99875 31 ft 35 kts 53°
2026-04-23 21:15 53.63399 10.00086 36 ft 0 kts 54°
2026-04-23 21:15 53.63405 10.00104 37 ft 11 kts 70°
2026-04-23 21:16 53.63356 10.00228 39 ft 0 kts 127°
2026-04-23 21:16 53.63348 10.00248 40 ft 3 kts 110°
2026-04-23 21:16 53.63363 10.00292 41 ft 5 kts 55°
2026-04-23 21:16 53.63373 10.00341 42 ft 0 kts 88°
2026-04-23 21:26 53.63344 10.00288 40 ft 8 kts 315°
2026-04-23 21:26 53.63360 10.00213 39 ft 22 kts 311°
2026-04-23 21:27 53.63549 9.99904 35 ft 42 kts 291°
2026-04-23 21:27 53.63554 9.99804 35 ft 0 kts 256°
2026-04-23 21:28 53.63553 9.99798 35 ft 4 kts 244°
2026-04-23 21:28 53.63388 9.99529 32 ft 71 kts 227°
2026-04-23 21:29 53.62906 9.98572 38 ft 141 kts 231°
2026-04-23 21:29 53.62149 9.97039 35 ft 197 kts 230°
2026-04-23 21:29 53.61244 9.95246 801 ft 195 kts 223°
2026-04-23 21:29 53.60244 9.93883 1492 ft 191 kts 218°
2026-04-23 21:30 53.59134 9.92297 1551 ft 220 kts 224°
2026-04-23 21:30 53.57974 9.90524 2017 ft 234 kts 223°
2026-04-23 21:30 53.56687 9.88774 2577 ft 243 kts 210°
2026-04-23 21:30 53.55069 9.88168 3274 ft 243 kts 178°
2026-04-23 21:31 53.53346 9.88500 3622 ft 258 kts 169°
2026-04-23 21:31 53.51816 9.89624 3927 ft 232 kts 133°
2026-04-23 21:31 53.51036 9.91795 3942 ft 211 kts 82°
2026-04-23 21:31 53.51345 9.94156 3839 ft 211 kts 59°
2026-04-23 21:32 53.52253 9.96055 3788 ft 211 kts 32°
2026-04-23 21:32 53.53479 9.97759 3275 ft 246 kts 43°
2026-04-23 21:32 53.54775 9.99834 2751 ft 264 kts 42°
2026-04-23 21:32 53.56172 10.01858 2604 ft 264 kts 39°
2026-04-23 21:33 53.57576 10.03754 2642 ft 257 kts 38°
2026-04-23 21:33 53.59000 10.05601 2608 ft 255 kts 37°
2026-04-23 21:33 53.60415 10.07406 2426 ft 259 kts 37°
2026-04-23 21:33 53.61779 10.09398 2348 ft 257 kts 44°
2026-04-23 21:34 53.62995 10.11590 2180 ft 260 kts 49°
2026-04-23 21:34 53.64129 10.13982 2086 ft 259 kts 53°
2026-04-23 21:34 53.65153 10.16445 2053 ft 256 kts 56°
2026-04-23 21:34 53.66094 10.18978 1987 ft 255 kts 59°
2026-04-23 21:35 53.66942 10.21466 2449 ft 230 kts 60°
2026-04-23 21:35 53.67690 10.23776 2505 ft 232 kts 62°
2026-04-23 21:35 53.68435 10.26239 2465 ft 235 kts 63°
2026-04-23 21:35 53.69138 10.28733 2454 ft 236 kts 65°
2026-04-23 21:36 53.70432 10.33848 2453 ft 238 kts 68°
2026-04-23 21:36 53.71018 10.36453 2453 ft 239 kts 70°
2026-04-23 21:36 53.71692 10.39047 2667 ft 238 kts 39°
2026-04-23 21:37 53.73041 10.40414 3397 ft 222 kts 359°
2026-04-23 21:37 53.74560 10.40247 3930 ft 228 kts 349°
2026-04-23 21:37 53.76091 10.39387 4492 ft 238 kts 332°
2026-04-23 21:37 53.77399 10.37607 5115 ft 246 kts 309°
2026-04-23 21:38 53.78205 10.35092 5775 ft 250 kts 287°
2026-04-23 21:38 53.78520 10.32222 6478 ft 252 kts 273°
2026-04-23 21:38 53.78422 10.29252 7193 ft 253 kts 259°
2026-04-23 21:38 53.77942 10.26345 7089 ft 279 kts 251°
2026-04-23 21:39 53.76779 10.23936 3286 ft 348 kts 200°
2026-04-23 21:39 53.74735 10.22965 3261 ft 263 kts 220°
2026-04-23 21:39 53.73847 10.20622 3701 ft 235 kts 236°
2026-04-23 21:39 53.72751 10.18423 3274 ft 248 kts 229°
2026-04-23 21:40 53.71636 10.16238 2785 ft 241 kts 229°
2026-04-23 21:40 53.70573 10.14103 2304 ft 237 kts 230°
2026-04-23 21:40 53.69564 10.12058 1960 ft 211 kts 230°
2026-04-23 21:40 53.68723 10.10350 1653 ft 178 kts 230°
2026-04-23 21:41 53.67939 10.08757 1408 ft 178 kts 230°